Theta_e
311 310 311 311 312 311 311 311 311 313 313 314 315 313 313 312 309 308 310 310 310 309 309 309 309 309 307 305 302 300 299 299 298 297 297 296 296 295 295 294 294 293 292 291
313 312 311 311 311 312 311 312 312 312 310 311 311 313 312 311 312 312 310 311 311 311 307 305 306 306 305 303 301 299 299 298 297 297 296 295 295 295 294 294 293 292 292 291
312 312 313 313 313 313 312 312 312 312 312 310 310 311 312 311 311 312 312 311 311 311 306 304 302 303 302 300 299 299 298 298 297 297 296 295 295 294 294 293 292 292 291 290
311 312 312 312 312 312 313 311 311 312 312 313 310 314 311 311 311 310 311 311 309 305 304 303 302 300 300 300 298 298 298 297 297 296 295 294 293 293 293 292 292 292 291 290
311 312 310 312 312 310 313 312 312 313 313 313 314 314 314 310 310 310 311 310 309 306 304 302 302 303 301 299 298 298 297 296 296 296 295 294 293 292 293 292 292 291 291 290
308 309 311 311 310 310 310 311 311 310 309 314 312 313 312 309 311 310 310 309 309 306 305 303 303 302 299 298 298 297 296 296 296 295 295 294 292 292 292 292 291 291 290 289
308 309 308 309 311 309 310 311 312 312 312 315 309 311 313 311 309 309 310 309 308 304 303 300 299 299 298 297 296 296 296 295 295 295 294 294 293 292 292 292 291 290 289 289
310 310 308 308 310 310 309 311 313 310 313 314 308 311 311 310 309 308 307 308 305 305 303 301 300 299 298 297 296 296 295 295 295 294 294 293 293 292 292 292 290 290 290 290
310 310 309 308 309 310 310 311 310 313 297 309 313 310 310 309 308 307 306 305 305 304 302 301 298 298 297 297 296 296 295 295 294 294 293 293 292 292 291 291 290 290 290 290
310 311 310 307 307 307 309 308 312 311 311 309 313 310 312 311 312 311 306 304 304 304 303 301 299 298 297 297 297 296 296 295 294 293 293 292 292 292 291 290 290 290 290 288
309 311 312 305 307 309 307 309 309 310 311 315 314 313 307 309 310 310 306 304 303 303 302 302 301 300 299 298 297 296 296 295 294 293 293 292 291 291 291 290 290 289 289 287
311 312 314 311 307 306 308 310 310 312 313 310 312 313 312 308 306 307 306 305 305 305 304 301 300 300 297 297 296 296 295 294 295 293 292 291 290 290 290 289 289 289 288 286
314 313 318 316 312 306 308 307 308 309 310 313 315 315 312 311 310 306 304 303 304 304 304 302 300 299 299 297 296 296 295 295 294 293 292 290 289 290 289 288 288 288 287 285
313 313 316 319 316 313 313 311 309 311 313 314 314 313 311 311 311 310 310 310 310 310 303 303 304 301 298 298 297 296 295 295 294 292 290 289 288 288 288 287 287 286 285 284
314 314 314 315 315 315 315 315 314 314 313 316 315 314 312 310 310 310 309 309 309 308 304 303 303 300 299 298 297 296 295 294 293 291 290 289 288 287 286 285 285 285 284 283
312 316 316 316 314 314 315 314 314 314 314 314 313 314 314 313 313 313 312 311 310 308 308 305 302 301 298 297 298 296 295 293 292 291 289 288 286 285 284 283 284 283 282 281
314 313 316 318 315 314 315 315 315 314 313 313 314 312 312 312 312 313 312 311 310 310 309 304 302 300 297 297 298 296 295 293 291 290 288 286 284 282 281 282 282 280 280 279
314 312 313 318 317 318 313 311 312 313 312 312 312 312 312 312 312 311 311 309 309 309 306 303 301 300 299 301 299 298 295 291 290 289 286 284 282 281 280 280 279 278 278 277
312 314 316 317 318 315 314 311 311 312 313 311 311 311 307 304 309 310 304 302 302 301 301 301 300 300 301 301 300 295 290 289 288 287 285 283 282 280 279 278 278 277 276 276
311 313 316 317 319 319 314 310 308 310 314 301 300 300 300 300 303 303 299 301 300 299 298 296 296 296 296 296 295 291 288 287 286 285 284 282 281 280 278 278 277 276 276 275
305 309 312 314 316 312 302 300 303 313 301 297 299 298 297 298 298 298 297 297 296 296 296 298 296 291 293 294 291 288 286 285 286 285 283 281 280 279 278 277 276 275 275 274
302 301 301 302 308 311 298 297 294 294 295 298 293 293 293 293 292 293 293 292 293 293 294 296 292 294 293 291 290 286 284 285 285 283 281 279 278 277 276 275 274 274 274 273
301 294 295 297 295 290 296 291 293 295 294 293 292 290 290 290 291 291 291 291 292 292 291 293 292 293 293 289 288 286 286 285 283 280 278 277 277 276 275 274 273 273 272 272
290 290 291 289 289 289 289 290 290 290 289 289 289 288 288 289 290 290 290 291 291 291 291 293 293 292 290 290 288 287 286 285 282 278 276 275 274 274 273 273 272 272 272 272
289 289 287 288 288 288 288 289 288 287 287 286 284 284 284 286 287 287 287 287 289 290 290 291 291 292 291 292 289 288 286 282 279 278 275 274 274 272 272 272 272 272 272 272
289 289 288 288 288 286 287 285 285 282 282 281 281 282 282 281 281 281 282 283 284 285 286 288 289 291 290 290 288 287 284 281 278 276 274 274 273 272 272 271 271 272 272 273
Wind_Speed
5 4 10 22 17 6 5 6 8 18 10 10 17 18 20 20 10 12 17 18 18 18 20 22 34 40 41 43 43 47 47 42 40 38 37 33 33 31 29 27 24 23 21 19
3 11 18 3 9 9 11 14 15 15 11 10 15 21 17 12 14 16 16 19 21 18 9 10 23 33 41 44 44 45 46 44 44 42 40 33 37 34 31 28 26 25 23 22
18 10 17 12 9 10 19 14 18 18 10 6 9 10 13 11 12 15 17 20 21 17 12 8 11 27 33 38 44 48 48 46 45 44 41 29 30 26 29 31 30 31 28 25
11 12 12 7 7 12 21 10 13 12 3 13 4 14 9 7 13 11 17 19 17 11 9 8 11 17 32 37 41 45 47 47 46 44 41 39 34 28 35 37 37 33 29 26
10 4 8 12 24 11 19 3 5 2 5 5 6 7 4 9 9 11 16 18 19 12 11 12 16 28 30 35 41 45 45 45 43 46 47 45 35 31 31 36 37 34 30 28
10 1 4 8 2 6 3 1 0 3 3 12 8 9 4 7 11 6 14 14 14 11 8 10 14 21 23 32 35 38 42 45 46 46 47 48 39 37 33 34 37 36 34 31
2 13 7 6 4 2 2 5 4 4 1 13 12 11 22 7 7 11 12 13 16 7 9 10 12 13 21 30 34 36 40 38 44 47 49 50 45 44 43 40 40 40 38 35
3 14 13 8 18 11 10 10 7 7 11 22 3 8 6 12 13 11 14 14 6 9 9 12 14 13 22 29 34 36 36 35 43 45 46 48 48 46 45 44 42 43 43 40
7 11 1 2 2 8 4 6 9 1 2 2 11 13 8 4 10 10 15 4 8 9 9 10 8 15 22 27 34 39 38 40 40 44 43 46 47 45 45 44 44 44 42 37
6 11 8 4 4 1 6 2 2 2 3 7 17 4 15 14 22 20 6 10 8 6 7 8 9 13 22 29 34 36 37 40 40 43 45 45 48 49 45 45 46 44 39 35
7 7 19 5 6 9 1 4 4 2 5 14 18 15 6 5 3 3 7 8 8 8 9 10 11 16 24 24 29 35 36 37 39 43 45 44 46 47 46 45 46 45 38 37
4 4 5 9 6 4 4 8 11 10 11 5 7 15 22 12 9 5 9 6 6 7 8 9 9 12 18 24 27 36 36 37 47 44 40 41 40 43 43 44 43 42 39 37
5 4 5 9 13 4 7 6 7 6 2 13 15 15 23 22 23 10 7 9 9 9 8 7 9 11 13 22 28 32 36 43 39 38 41 39 41 43 43 44 44 41 39 37
11 9 12 17 17 10 10 11 11 15 14 24 21 30 28 34 29 25 21 25 25 23 9 10 10 10 9 20 25 28 32 39 38 40 40 39 42 44 42 44 43 42 40 38
11 12 19 26 30 29 29 29 28 26 23 19 26 22 26 32 22 26 24 25 23 19 7 9 10 9 13 16 24 29 33 33 39 38 37 39 39 42 43 44 42 42 41 39
9 15 17 23 26 29 31 31 28 30 31 27 32 32 35 35 33 32 32 24 20 19 18 12 12 13 12 13 24 30 32 34 39 36 37 36 39 41 42 41 43 43 40 39
12 8 13 28 22 24 24 34 35 32 27 23 28 35 36 32 27 29 31 23 21 22 19 10 11 11 11 16 27 24 32 33 35 33 32 36 37 37 39 41 43 43 43 40
19 15 10 16 15 20 15 20 30 34 33 34 34 29 27 28 27 29 21 15 20 22 13 9 9 10 17 24 26 30 26 32 31 29 31 34 37 37 36 38 37 36 38 39
22 22 13 18 20 23 3 11 22 18 31 27 24 23 15 21 17 23 20 14 14 15 14 13 13 13 20 23 26 22 24 26 26 28 30 35 37 35 36 35 34 35 33 33
13 19 17 19 25 30 17 8 15 9 13 14 13 14 14 15 9 9 23 20 21 19 15 10 18 19 19 19 12 19 18 19 24 27 28 31 33 35 35 36 36 36 36 32
17 14 18 21 19 13 14 20 14 7 10 22 14 12 13 12 8 15 18 23 20 12 12 24 19 9 12 12 8 10 13 17 17 23 29 32 34 35 35 35 35 37 35 30
5 5 6 5 8 9 18 9 10 11 11 11 18 12 13 14 16 14 17 21 21 19 18 18 11 15 15 8 11 11 11 12 15 23 28 29 30 28 31 33 30 31 31 30
6 3 4 5 6 16 9 18 5 6 9 9 9 16 15 17 18 18 17 19 19 17 16 25 16 17 18 12 14 11 17 17 20 23 24 25 29 29 31 33 30 29 28 28
6 10 4 11 7 19 18 14 10 15 14 17 12 13 15 18 18 21 18 18 18 17 14 21 20 13 13 16 19 25 21 25 29 26 22 22 24 26 30 25 28 27 28 23
8 10 6 13 13 15 12 10 12 14 10 12 15 16 17 17 18 19 19 20 18 19 20 22 17 16 16 22 23 27 29 28 25 26 29 31 29 29 24 25 31 28 26 29
9 13 11 14 18 8 17 13 7 7 9 10 13 17 19 19 19 20 18 18 18 18 22 19 24 24 25 29 26 27 28 32 26 21 23 26 24 26 33 32 26 23 24 20
Wind_Direction
210 148 208 225 202 224 237 256 238 268 259 205 240 240 251 254 251 241 254 258 254 245 249 236 221 208 198 196 191 190 191 195 195 192 193 197 199 203 205 211 213 212 210 205
252 218 227 219 208 227 248 259 264 278 270 198 251 252 254 240 247 244 230 250 253 251 250 236 201 188 186 186 187 185 191 195 197 197 199 200 204 206 209 211 213 216 213 210
221 222 219 225 239 261 248 248 258 255 291 238 283 267 251 245 246 250 254 248 257 251 230 223 179 183 177 178 183 186 191 197 199 202 201 199 204 208 207 210 212 214 214 213
247 233 221 194 211 208 262 224 256 270 281 274 136 290 220 239 236 238 245 254 249 235 221 203 180 177 181 184 184 187 193 198 202 203 198 197 197 200 206 207 211 213 215 214
233 213 207 226 233 197 263 210 246 229 241 315 176 283 209 192 235 243 244 250 257 239 210 189 188 190 187 178 182 190 194 197 200 205 205 202 204 208 208 211 211 210 211 214
249 316 229 209 157 190 130 124 2 27 59 264 180 210 180 193 218 230 244 250 247 241 211 193 187 173 177 182 184 187 191 197 202 207 205 208 206 205 204 206 205 206 209 211
262 222 207 149 194 313 154 85 304 314 357 258 183 220 254 284 230 214 225 237 239 169 168 165 161 172 176 183 186 189 193 195 202 207 208 211 210 211 212 210 206 205 205 206
258 285 154 189 204 190 196 184 176 215 264 278 120 249 252 226 236 226 224 225 194 174 184 178 180 182 184 188 191 193 196 199 204 207 210 213 214 215 217 219 214 211 207 210
207 260 11 171 106 148 176 176 215 340 95 334 262 272 291 292 276 273 247 219 199 200 187 188 178 188 189 193 197 196 198 205 207 209 210 213 215 216 217 219 216 214 213 212
240 269 207 156 128 2 174 170 87 246 211 243 270 258 270 284 280 280 244 216 207 199 208 201 200 202 201 201 201 204 207 207 209 210 211 213 215 219 220 220 216 215 214 209
352 281 271 109 196 180 128 254 230 262 193 247 262 273 220 193 236 308 245 221 218 214 216 213 210 216 210 206 201 206 208 210 211 214 213 212 214 218 219 222 222 220 213 207
152 307 292 258 260 240 198 214 211 238 257 231 267 266 270 313 325 330 304 264 213 204 216 222 212 213 201 199 200 209 211 210 216 215 213 212 213 217 218 219 219 213 209 208
150 208 250 293 288 219 206 209 219 243 224 246 263 264 274 281 284 287 274 273 281 278 256 226 230 218 210 207 209 210 210 215 215 210 211 209 212 215 216 215 213 207 207 210
159 199 213 241 239 273 272 269 260 251 252 255 245 259 265 263 257 267 264 255 264 273 241 233 237 234 219 217 215 214 216 216 210 207 203 203 206 209 209 212 208 205 208 208
188 234 218 229 242 252 250 255 247 243 240 240 253 249 256 261 274 263 264 266 266 270 227 230 239 228 223 221 219 219 221 213 207 201 200 202 203 206 206 207 203 205 207 208
201 236 228 239 231 235 244 248 250 250 248 252 252 256 250 261 264 271 269 277 280 276 263 236 230 238 234 220 220 219 218 210 204 200 201 196 194 195 198 197 200 201 202 205
220 221 232 248 231 235 241 233 237 242 245 245 245 239 245 260 259 261 271 276 274 274 273 251 232 229 237 234 228 220 217 207 196 199 194 188 185 187 190 193 196 195 196 200
269 265 249 261 254 238 230 222 232 245 248 251 254 259 252 255 267 267 277 301 308 300 279 262 253 254 252 256 242 231 212 197 190 189 187 184 181 184 184 186 187 187 190 192
231 247 258 260 253 257 285 222 231 235 249 260 286 286 324 349 303 275 22 356 347 343 350 331 326 302 295 279 270 218 190 183 183 188 185 184 184 179 178 180 181 184 183 187
268 249 247 252 259 263 283 28 349 324 251 20 23 14 356 353 13 339 340 334 324 321 328 339 345 336 331 316 267 196 180 177 189 191 188 185 181 180 178 179 179 183 187 187
274 286 263 259 264 274 341 9 344 271 350 318 3 1 358 348 336 304 308 307 300 285 306 320 324 307 315 311 252 211 187 204 205 189 187 185 185 183 182 178 178 180 177 177
282 315 289 321 283 274 29 52 16 298 291 320 319 335 326 312 305 298 300 297 299 309 313 311 300 303 311 255 220 205 222 231 205 195 189 183 184 180 177 176 173 176 172 172
255 4 288 309 324 305 308 319 322 315 318 303 306 315 319 315 318 314 311 306 303 305 308 303 286 292 297 267 237 227 224 210 197 197 186 183 180 179 179 173 173 168 175 176
273 314 293 306 273 298 307 318 333 353 335 329 344 338 324 310 306 304 303 295 294 296 298 302 300 286 282 275 253 242 246 212 193 184 179 178 177 174 174 179 179 178 180 182
267 299 266 280 279 297 291 316 347 322 337 339 327 315 308 312 308 304 303 301 294 298 296 289 284 285 281 280 257 258 238 216 194 183 176 181 182 179 179 182 180 182 189 189
252 262 270 279 295 307 302 324 341 352 316 310 303 303 305 308 304 302 296 299 304 300 298 290 284 280 279 276 260 251 235 212 196 190 182 182 187 193 177 173 173 187 182 180